Bremerton, WA

3:19 PM PST on December 11, 2019 (GMT -0800)
Bremerton National

Weather History for KPWT - August, 2019

Change the Weather History Date:

Saturday, August 24, 2019

  Actual Average Record
Temperature  
Mean Temperature 63 °F -  
Max Temperature 75 °F 72 °F 86 °F (1996)
Min Temperature 51 °F 50 °F 42 °F (2003)
Degree Days  
Heating Degree Days 2    
Growing Degree Days 13 (Base 50)    
Moisture  
Dew Point 54 °F    
Average Humidity 72    
Maximum Humidity 96    
Minimum Humidity 57    
Precipitation  
Precipitation 0.00 in - - ()
Sea Level Pressure  
Sea Level Pressure 30.03 in    
Wind  
Wind Speed 4 mph ()    
Max Wind Speed 14 mph    
Max Gust Speed 16 mph    
Visibility 10.0 miles    
Events      
Averages and records for this station are not official NWS values.
T = Trace of Precipitation, MM = Missing Value Source: Averaged Metar Reports

Daily Weather History Graph

Daily Weather History Graph

Search for Another Location

Airport or City:

Astronomy

Aug. 24, 2019 Rise Set
Actual Time 6:18 AM PDT 8:06 PM PDT
Civil Twilight 5:46 AM PDT 8:39 PM PDT
Nautical Twilight 5:06 AM PDT 9:19 PM PDT
Astronomical Twilight 4:22 AM PDT 10:03 PM PDT
Moon 12:06 AM PDT (8/24) 3:40 PM PDT (8/24)
Length of Visible Light 14h 53m
Length of Day
13h 47m
Last Quarter, 38% of the Moon is Illuminated
Aug 24
Last Quarter
Aug 30
New
Sep 5
First Quarter
Sep 13
Full
Sep 21
Last Quarter

Hourly Weather History & Observations

Time (PDT) Temp. Dew Point Humidity Pressure Visibility Wind Dir Wind Speed Gust Speed Precip Events Conditions
12:56 AM 60.1 °F 53.1 °F 78% 29.98 in 10.0 mi ESE 3.5 mph - N/A   Mostly Cloudy
1:56 AM 59.0 °F 53.1 °F 81% 29.98 in 10.0 mi NE 4.6 mph - N/A   Scattered Clouds
2:56 AM 59.0 °F 53.1 °F 81% 29.98 in 10.0 mi Calm Calm - N/A   Overcast
3:56 AM 57.9 °F 52.0 °F 81% 29.98 in 10.0 mi Calm Calm - N/A   Mostly Cloudy
4:56 AM 55.9 °F 53.1 °F 90% 29.99 in 10.0 mi Calm Calm - N/A   Mostly Cloudy
5:56 AM 55.0 °F 52.0 °F 89% 30.01 in 10.0 mi Calm Calm - N/A   Mostly Cloudy
6:56 AM 51.1 °F 50.0 °F 96% 30.02 in 10.0 mi Calm Calm - N/A   Scattered Clouds
7:56 AM 57.0 °F 52.0 °F 83% 30.03 in 9.0 mi Calm Calm - N/A   Clear
8:56 AM 61.0 °F 53.1 °F 75% 30.03 in 10.0 mi Variable 3.5 mph - N/A   Clear
9:56 AM 64.0 °F 53.1 °F 67% 30.04 in 10.0 mi WSW 5.8 mph - N/A   Clear
10:56 AM 66.9 °F 54.0 °F 63% 30.04 in 10.0 mi South 5.8 mph - N/A   Scattered Clouds
11:56 AM 66.9 °F 54.0 °F 63% 30.05 in 10.0 mi SW 6.9 mph - N/A   Scattered Clouds
12:56 PM 71.1 °F 55.9 °F 59% 30.04 in 10.0 mi SW 8.1 mph - N/A   Mostly Cloudy
1:56 PM 73.0 °F 57.9 °F 59% 30.03 in 10.0 mi SW 11.5 mph - N/A   Mostly Cloudy
2:56 PM 75.0 °F 59.0 °F 57% 30.03 in 10.0 mi WSW 12.7 mph - N/A   Mostly Cloudy
3:56 PM 75.0 °F 59.0 °F 57% 30.03 in 10.0 mi SSW 13.8 mph - N/A   Partly Cloudy
4:56 PM 75.0 °F 59.0 °F 57% 30.04 in 10.0 mi SSW 9.2 mph 16.1 mph N/A   Mostly Cloudy
5:56 PM 69.1 °F 55.0 °F 61% 30.04 in 10.0 mi NE 13.8 mph - N/A   Overcast
6:56 PM 68.0 °F 54.0 °F 61% 30.05 in 10.0 mi ENE 9.2 mph - N/A   Overcast
7:56 PM 66.0 °F 54.0 °F 65% - 10.0 mi ENE 6.9 mph - N/A   Overcast
8:56 PM 64.9 °F 54.0 °F 68% 30.07 in 10.0 mi East 3.5 mph - N/A   Overcast
9:56 PM 63.0 °F 55.0 °F 75% 30.08 in 10.0 mi Calm Calm - N/A   Overcast
10:56 PM 62.1 °F 55.0 °F 78% 30.08 in 10.0 mi Calm Calm - N/A   Overcast
11:56 PM 61.0 °F 55.9 °F 83% 30.09 in 10.0 mi Calm Calm - N/A   Overcast